GFSMA_850_dewp_000.txt.gz
Dewpoint
-18 -11 -1 -2 -1 3 3 1 3 4 5 4 4 5 8 6 6 7 8 7 3 -5 3 5 7 8 9 8 -2 -7 -13 -15 -15 -17 -18 -17 -18 -19 -18 -18 -19 -17 -15
-25 -22 -13 -2 3 2 0 1 5 2 5 7 8 7 7 9 8 8 8 8 7 -1 -3 5 5 8 8 9 7 -4 -11 -13 -16 -17 -18 -17 -17 -17 -17 -15 -15 -14 -11
-22 -21 -19 -11 -2 2 4 6 6 7 7 9 9 8 7 7 8 9 9 7 7 6 -6 -2 5 7 10 9 8 5 1 -1 -12 -15 -15 -14 -14 -15 -14 -10 -10 -8 -7
-14 -13 -16 -19 -15 -11 -4 5 8 9 8 9 9 8 8 7 7 6 5 8 7 7 0 -5 -3 4 9 10 9 8 6 5 5 -8 -10 -12 -12 -11 -13 -1 -1 -2 -1
-13 -14 -13 -13 -16 -16 -12 -2 5 6 7 7 7 8 8 8 8 8 6 5 7 8 7 1 -3 -3 6 9 9 8 8 1 6 6 2 -5 -10 -9 -1 1 4 1 -0
-14 -13 -9 -13 -7 -6 -8 -16 -13 -6 -2 2 3 5 7 8 8 8 7 6 6 6 6 7 2 -2 2 7 9 9 9 4 3 7 6 5 1 -3 0 1 4 6 5
-5 -5 -6 -6 -6 -4 -3 -4 -6 -6 -6 -2 -7 1 3 6 8 7 7 7 7 6 6 7 6 3 3 6 8 9 8 5 6 6 7 6 6 4 4 4 4 5 5
-5 -6 -6 -6 -5 -6 -6 -4 -4 -6 -7 -5 -4 -4 3 6 7 8 7 7 7 5 6 7 7 3 4 6 6 7 7 6 6 6 6 5 5 4 4 3 -1 -1 -1
-4 -4 -4 -5 -5 -4 -5 -5 -5 -5 -7 -8 -5 -3 -5 1 4 6 7 8 8 8 6 6 8 5 3 4 7 5 5 7 5 6 6 5 5 5 3 -3 -8 -9 -7
-6 -5 -4 -3 -3 -4 -5 -5 -7 -6 -5 -6 -8 -8 -2 -5 -5 -5 -0 6 6 7 7 6 7 7 5 4 4 6 4 5 4 5 7 5 6 6 5 -7 -10 -7 -7
-12 -12 -6 -3 -2 -3 -3 -3 -3 -5 -5 -5 -6 -7 -8 -7 -6 -3 -6 -4 3 5 6 7 6 6 6 6 4 5 6 3 2 1 8 7 6 5 4 -8 -8 -6 -6
-7 -6 -5 -4 -4 -3 -3 -3 -3 -3 -3 -4 -5 -6 -7 -8 -9 -9 -4 -3 -5 -3 -1 4 6 6 6 7 6 5 5 4 2 -1 4 8 8 6 5 3 -2 -6 -5
-8 -8 -8 -8 -8 -8 -7 -7 -6 -5 -6 -6 -6 -6 -7 -8 -7 -8 -9 -8 -8 -5 -2 -4 2 6 6 6 7 6 6 4 1 -0 -1 5 8 8 7 6 3 -1 -5
-14 -17 -19 -20 -15 -13 -12 -10 -11 -11 -10 -8 -8 -6 -6 -8 -9 -8 -8 -9 -8 -8 -6 -3 -5 -1 6 6 6 5 6 4 2 1 -1 -1 6 6 7 8 7 5 3
-13 -13 -19 -23 -22 -19 -15 -9 -8 -8 -7 -7 -6 -6 -5 -5 -7 -7 -7 -8 -8 -9 -10 -9 -6 -6 -3 4 5 5 5 4 3 2 -0 -1 0 5 5 5 6 7 5
-16 -16 -18 -12 -9 -9 -8 -8 -8 -8 -7 -7 -7 -7 -5 -5 -6 -7 -7 -7 -6 -7 -7 -10 -10 -2 -2 -4 4 4 6 6 4 3 0 0 -1 -0 2 3 3 6 6
-15 -11 -10 -9 -9 -9 -8 -8 -7 -7 -7 -7 -7 -7 -6 -6 -5 -7 -7 -7 -7 -7 -7 -7 -7 -6 -1 -3 -1 3 4 4 6 5 2 1 0 -2 -1 0 2 4 6
-10 -9 -9 -9 -9 -10 -10 -9 -8 -8 -8 -7 -7 -7 -7 -7 -6 -6 -6 -7 -8 -8 -8 -7 -6 -6 -3 -12 -19 -13 1 2 4 5 5 3 1 0 -2 -4 -1 3 6
-9 -10 -11 -11 -11 -11 -10 -9 -9 -8 -7 -7 -7 -6 -7 -7 -6 -6 -7 -7 -7 -8 -8 -8 -7 -6 -5 -2 -6 -7 -3 -0 2 4 6 6 4 0 -2 -4 -2 2 5
-12 -12 -12 -11 -11 -11 -10 -9 -8 -8 -7 -7 -7 -7 -7 -5 -5 -5 -6 -7 -7 -6 -7 -7 -8 -7 -6 -3 -3 -9 0 -1 1 3 4 5 5 2 -0 -0 1 3 5
-13 -12 -12 -12 -11 -10 -9 -8 -8 -8 -8 -8 -8 -8 -7 -7 -6 -6 -5 -5 -6 -6 -6 -6 -7 -7 -6 -4 -3 -4 -2 1 1 2 3 4 4 4 3 4 4 5 5
-13 -13 -12 -11 -10 -9 -9 -9 -9 -9 -9 -9 -9 -8 -9 -8 -8 -8 -8 -6 -5 -4 -4 -5 -6 -6 -7 -5 -2 -2 -1 -0 1 2 2 3 3 4 3 4 4 4 2
-13 -13 -12 -10 -9 -9 -9 -9 -10 -10 -10 -9 -9 -8 -8 -8 -8 -7 -7 -8 -8 -6 -6 -5 -4 -6 -7 -6 -4 -1 -1 -1 0 1 2 1 1 1 2 4 4 3 3
-13 -12 -10 -9 -9 -9 -10 -10 -9 -10 -9 -9 -9 -9 -8 -8 -8 -7 -7 -7 -7 -6 -7 -7 -6 -4 -6 -6 -5 -2 -1 -1 -1 -0 1 -0 -0 -1 -0 2 2 2 1
-12 -10 -9 -9 -9 -10 -10 -10 -9 -9 -9 -9 -9 -9 -9 -9 -9 -8 -8 -8 -8 -7 -7 -6 -7 -6 -5 -4 -3 -2 -2 -2 -1 -1 -2 -1 -2 -3 -3 -3 -1 -1 -1
-10 -9 -10 -10 -10 -10 -9 -8 -8 -8 -9 -9 -8 -8 -8 -8 -8 -8 -8 -8 -8 -8 -6 -7 -5 -6 -6 -6 -3 -3 -2 -2 -2 -3 -2 -2 -3 -4 -5 -6 -6 -5 -3

GFSMA_850_dewp_003.txt.gz
Dewpoint
-7 -5 -7 -4 -2 -2 0 2 3 2 4 5 4 6 5 6 6 7 5 5 8 8 7 5 1 5 7 9 8 4 -6 -8 -13 -14 -14 -13 -13 -12 -9 -7 -10 -15 -16
-11 6 1 -2 1 3 4 4 4 4 5 2 6 7 7 6 9 7 6 4 6 8 7 7 5 1 8 9 8 8 -0 -10 -12 -14 -16 -14 -13 -12 -14 -11 -10 -12 -11
-14 -14 -1 3 -3 -17 -11 -4 -0 1 3 5 4 6 8 8 8 8 7 7 6 7 7 7 8 1 1 9 10 9 8 2 -6 -13 -13 -13 -14 -14 -14 -14 -7 -6 -2
-11 -9 -2 -4 -16 -10 -11 -14 -1 2 7 6 6 7 9 7 8 6 7 5 8 8 6 7 8 6 1 4 10 9 9 8 -1 -10 -12 -11 -13 -15 -15 -11 -6 0 -2
-11 -10 -4 -4 -13 -4 -6 -14 -9 -5 2 5 6 7 6 6 8 8 9 9 7 6 8 7 7 2 -3 -1 5 10 9 8 8 -2 -10 1 -9 -12 -13 -10 -4 0 -4
-6 -4 -3 -2 -2 -3 -3 -2 -4 -4 -4 -3 1 -2 0 4 7 8 8 9 9 7 6 7 7 6 2 -6 -1 6 10 9 8 5 -3 4 3 -9 -11 -12 -2 -0 -0
-3 -3 -4 -4 -3 -4 -3 -2 -2 -3 -4 -4 -3 -3 -5 -5 -3 4 7 7 9 7 6 6 8 8 7 1 -7 -0 7 10 9 8 3 6 7 5 0 -7 -2 1 -1
-3 -3 -4 -4 -5 -4 -3 -3 -3 -3 -4 -5 -5 -4 -4 -3 -0 6 7 8 8 8 7 7 6 6 7 6 4 -4 3 8 10 9 8 6 7 7 6 5 2 3 1
-2 -2 -3 -3 -3 -2 -3 -3 -3 -3 -4 -4 -4 -5 -6 -4 -2 -4 1 6 7 8 8 8 7 6 6 7 5 5 3 2 9 9 8 6 7 7 7 6 5 4 4
-3 -2 -3 -4 -4 -3 -3 -3 -4 -4 -3 -4 -4 -4 -5 -6 -5 -4 -5 -7 -3 1 7 8 8 7 6 7 7 5 7 4 5 9 9 7 5 7 6 6 6 4 4
-3 -3 -3 -4 -3 -4 -4 -4 -4 -3 -3 -3 -3 -4 -4 -5 -5 -5 -5 -5 -5 -5 -2 3 7 7 6 6 7 6 5 8 6 6 8 8 6 5 6 6 4 5 3
-6 -6 -5 -5 -4 -4 -5 -4 -4 -4 -4 -4 -3 -3 -4 -4 -4 -5 -5 -5 -6 -6 -2 -3 -2 6 7 6 6 7 5 5 8 7 5 7 6 6 5 6 5 2 0
-7 -7 -7 -8 -8 -10 -8 -8 -8 -7 -7 -7 -6 -5 -6 -6 -6 -6 -6 -6 -6 -7 -7 -7 -3 -4 3 6 6 7 6 5 6 6 6 6 6 5 6 5 6 3 -5
-7 -8 -8 -8 -9 -9 -9 -9 -9 -9 -10 -10 -9 -9 -8 -8 -7 -7 -6 -7 -6 -7 -7 -7 -7 -4 -4 -5 4 6 7 7 6 7 5 5 5 4 7 6 5 5 -8
-9 -10 -9 -9 -9 -9 -9 -8 -8 -8 -8 -8 -8 -7 -7 -7 -7 -5 -4 -5 -7 -6 -7 -8 -8 -7 -6 -4 -5 1 6 6 7 7 7 6 5 4 4 8 7 5 -3
-8 -9 -10 -10 -10 -10 -9 -8 -8 -8 -8 -7 -7 -7 -7 -7 -7 -6 -5 -4 -5 -6 -6 -7 -8 -9 -6 -3 -1 -1 1 4 6 7 7 7 5 4 3 5 8 7 4
-10 -10 -10 -10 -10 -9 -9 -9 -9 -8 -8 -8 -7 -7 -7 -7 -6 -6 -6 -4 -3 -4 -6 -6 -7 -8 -8 -4 -2 0 2 2 4 4 6 6 6 5 3 2 7 7 7
-9 -9 -9 -9 -10 -10 -10 -9 -9 -9 -9 -9 -9 -8 -8 -8 -7 -7 -6 -5 -4 -4 -6 -7 -7 -8 -8 -6 -6 -2 -1 -7 -5 2 3 5 5 5 4 3 2 5 6
-9 -9 -10 -10 -10 -10 -10 -10 -10 -9 -9 -9 -8 -8 -7 -7 -7 -7 -7 -6 -5 -5 -6 -6 -7 -8 -9 -8 -6 -3 -1 -2 -18 -2 2 2 4 5 4 5 3 3 4
-9 -10 -10 -11 -10 -10 -10 -10 -10 -9 -9 -8 -7 -7 -7 -7 -7 -6 -5 -5 -5 -5 -5 -6 -7 -7 -7 -8 -8 -4 -2 -2 -9 -14 -1 2 3 4 4 4 5 3 3
-10 -11 -11 -11 -11 -10 -11 -10 -9 -8 -8 -8 -8 -8 -8 -8 -7 -8 -6 -5 -4 -4 -5 -5 -6 -6 -6 -6 -7 -5 -1 -1 -6 -5 -2 -2 1 2 4 5 4 4 3
-12 -12 -11 -11 -11 -11 -10 -9 -9 -8 -8 -9 -9 -9 -9 -8 -9 -9 -9 -8 -7 -6 -5 -4 -4 -5 -5 -6 -6 -6 -3 -3 -1 -4 0 0 0 1 1 4 3 4 2
-12 -11 -11 -11 -10 -9 -9 -8 -9 -9 -9 -9 -9 -9 -9 -8 -8 -8 -9 -8 -9 -9 -8 -7 -5 -4 -4 -5 -6 -6 -4 -2 -2 -1 0 1 1 -0 0 2 4 3 2
-12 -11 -11 -10 -9 -8 -9 -10 -9 -9 -9 -9 -9 -9 -9 -9 -9 -8 -8 -8 -8 -8 -9 -9 -8 -6 -5 -4 -2 -3 -4 -2 -2 -2 -1 0 -0 1 1 0 1 3 3
-11 -11 -10 -9 -9 -9 -9 -9 -9 -9 -9 -9 -9 -9 -8 -8 -8 -8 -8 -8 -8 -7 -7 -8 -8 -7 -7 -7 -4 -3 -2 -1 -2 -2 -2 -1 -1 -0 -1 -0 -1 -2 1
-11 -10 -9 -9 -9 -10 -10 -9 -8 -8 -8 -8 -8 -9 -9 -8 -8 -8 -8 -8 -8 -8 -8 -8 -7 -8 -7 -9 -7 -5 -4 -2 -2 -3 -3 -2 -1 -2 -4 -4 -3 -3 -2

GFSMA_850_dewp_006.txt.gz
Dewpoint
-6 -3 -8 -9 -8 -5 -3 -4 -4 -0 0 2 4 5 5 6 6 5 5 7 8 8 8 8 7 3 1 6 9 7 6 7 -0 -5 -8 -9 -3 -0 5 7 3 0 -1
-5 5 3 -0 -4 -8 -4 2 5 4 4 3 5 5 5 5 7 6 6 7 7 6 6 8 8 3 4 1 2 5 7 7 7 -7 -10 -14 -11 -9 -9 2 -1 -4 -6
-11 -9 -5 1 2 -13 -14 -18 -14 -4 2 5 5 7 6 7 8 8 7 8 8 6 6 6 8 8 5 7 5 2 6 7 8 1 -11 -15 -16 -14 -11 -9 -6 -6 -10
-11 -9 -2 -3 -9 -4 -1 -8 -13 -16 -7 1 4 4 5 7 7 8 8 7 6 7 6 6 8 7 8 8 7 9 6 7 7 7 -1 -9 -16 -16 -14 -13 -10 -3 -4
-10 -7 -3 -5 -9 -5 -3 -5 -7 -7 -9 -11 -4 3 4 4 5 6 6 7 7 8 7 7 6 6 7 8 5 4 8 9 8 8 8 3 -12 -13 -15 -12 -10 -4 -2
-6 -8 -3 -3 -4 -3 -3 -2 -4 -4 -3 -4 -4 -6 -7 -9 -6 -2 4 6 6 7 7 7 7 6 6 6 7 6 4 10 10 8 8 7 -1 -10 -14 -14 -5 -2 -1
-3 -4 -4 -4 -4 -3 -3 -3 -3 -2 -3 -3 -4 -4 -4 -6 -4 -4 -1 3 5 7 8 8 7 7 7 7 6 -1 -1 3 9 10 9 8 6 -2 -12 -14 -4 6 3
-3 -3 -3 -4 -3 -4 -4 -3 -2 -3 -3 -4 -4 -4 -3 -4 -6 -0 -0 3 7 7 8 8 8 8 8 8 7 4 -3 -4 2 9 10 9 8 3 -6 -9 -1 4 5
-2 -2 -2 -2 -3 -3 -2 -2 -3 -4 -3 -2 -4 -4 -2 -2 -3 -4 -6 -7 -4 -3 -0 4 8 8 8 7 7 8 6 -0 -4 0 7 9 9 7 2 1 3 4 4
-2 -2 -2 -2 -3 -4 -4 -3 -3 -3 -3 -3 -3 -2 -2 -3 -3 -2 -3 -4 -5 -7 -7 -4 -0 4 8 7 6 6 7 6 4 -0 1 4 9 8 6 3 3 5 3
-5 -4 -3 -3 -3 -3 -4 -4 -4 -7 -6 -4 -3 -2 -2 -2 -2 -2 -2 -3 -3 -4 -5 -6 -5 -2 -1 6 7 6 6 7 6 6 5 2 4 9 8 6 5 6 5
-4 -4 -4 -5 -5 -4 -4 -5 -9 -6 -7 -8 -8 -7 -4 -3 -3 -3 -4 -4 -4 -4 -5 -6 -7 -7 -5 -3 4 7 7 6 8 6 6 7 4 4 8 7 6 6 5
-4 -6 -6 -6 -6 -7 -11 -15 -15 -16 -16 -13 -11 -10 -9 -8 -6 -5 -6 -6 -8 -7 -6 -6 -6 -7 -8 -9 -8 0 5 6 6 7 6 8 8 7 7 8 6 6 6
-5 -5 -6 -7 -11 -12 -13 -14 -15 -14 -15 -12 -9 -8 -7 -6 -6 -6 -6 -5 -5 -6 -6 -5 -6 -6 -7 -7 -9 -10 -7 1 6 6 7 6 7 8 7 7 7 6 6
-7 -8 -6 -9 -7 -12 -12 -12 -12 -12 -9 -9 -8 -8 -7 -7 -6 -5 -6 -6 -6 -5 -4 -3 -5 -6 -7 -7 -3 -4 -6 -7 -5 5 6 7 7 7 8 7 7 6 6
-4 -5 -5 -7 -12 -14 -14 -13 -11 -10 -9 -8 -9 -7 -7 -6 -6 -6 -6 -5 -5 -4 -3 -5 -4 -5 -6 -8 -7 -3 -3 -3 -5 -4 4 6 7 7 7 8 7 6 6
-4 -4 -6 -12 -14 -13 -12 -10 -9 -9 -9 -9 -9 -8 -8 -8 -8 -8 -7 -6 -5 -5 -4 -4 -4 -4 -5 -6 -10 -7 -5 -4 -3 -2 1 1 5 5 7 6 7 7 6
-4 -7 -10 -9 -10 -10 -10 -9 -9 -10 -9 -9 -9 -9 -9 -8 -7 -7 -7 -7 -6 -6 -5 -4 -4 -3 -4 -6 -7 -11 -8 -4 -3 -5 -5 -1 3 3 5 6 7 7 6
-7 -8 -8 -9 -10 -10 -10 -10 -10 -10 -10 -9 -9 -9 -9 -8 -8 -7 -7 -6 -6 -6 -5 -5 -4 -4 -4 -5 -6 -8 -11 -8 -4 -3 -3 -6 -11 -3 2 5 4 7 7
-8 -8 -8 -9 -11 -12 -11 -10 -10 -10 -10 -9 -9 -8 -7 -7 -6 -6 -6 -6 -6 -5 -4 -4 -4 -4 -4 -5 -6 -7 -8 -11 -9 -5 -4 -6 -9 -11 1 3 2 3 6
-8 -9 -10 -12 -11 -11 -10 -10 -11 -11 -10 -10 -9 -9 -9 -8 -8 -8 -7 -8 -7 -6 -6 -5 -5 -3 -4 -4 -5 -6 -7 -7 -7 -6 -6 -6 -7 -9 -2 0 1 2 4
-9 -11 -11 -11 -11 -10 -10 -10 -10 -9 -9 -8 -8 -9 -10 -10 -9 -9 -9 -9 -9 -9 -7 -7 -6 -5 -4 -3 -4 -5 -5 -6 -6 -6 -3 -4 -7 -6 -3 1 -0 1 2
-11 -12 -12 -11 -11 -10 -10 -9 -9 -9 -9 -10 -10 -10 -9 -9 -9 -9 -9 -9 -9 -9 -9 -9 -8 -7 -6 -5 -3 -3 -4 -5 -4 -3 -3 -5 -5 -2 -0 -1 -1 1 0
-11 -11 -11 -11 -10 -10 -10 -10 -11 -10 -9 -9 -9 -9 -9 -9 -10 -9 -9 -8 -8 -8 -8 -8 -8 -9 -10 -8 -7 -3 -3 -3 -3 -3 -2 -3 -3 -2 -0 0 1 1 1
-11 -11 -11 -11 -11 -10 -10 -11 -10 -9 -9 -8 -9 -8 -8 -8 -8 -9 -8 -8 -8 -9 -9 -8 -7 -8 -8 -9 -9 -9 -5 -4 -3 -2 -2 -2 -3 -2 -2 -0 -0 -0 0
-12 -11 -11 -9 -10 -11 -11 -10 -9 -9 -9 -8 -9 -9 -9 -10 -9 -8 -8 -8 -8 -9 -9 -9 -9 -8 -8 -8 -8 -6 -7 -6 -5 -4 -3 -2 -3 -3 -3 -2 -1 -1 0

GFSMA_850_dewp_009.txt.gz
Dewpoint
-3 -6 -6 -7 -6 -7 -8 -6 -6 -4 -3 -0 2 3 6 6 6 6 7 6 8 8 9 9 9 9 8 7 5 9 9 9 8 6 -0 -4 -2 -2 1 6 6 7 6
-1 -4 -0 -5 -6 -6 -8 -9 -8 -7 -5 -3 -1 4 5 5 5 6 6 7 6 5 6 7 8 8 9 9 6 6 9 9 8 6 6 -2 -6 -6 -4 2 6 7 7
-6 -6 -4 -6 -7 -5 -11 -9 -12 -15 -11 -5 0 1 1 4 6 6 7 9 6 7 8 7 7 6 7 9 10 7 7 9 7 6 7 4 -7 -11 -10 -7 1 4 4
-10 -8 -6 -7 -6 -11 -11 -10 -10 -10 -12 -13 -13 -3 2 3 5 6 7 7 8 8 7 7 6 6 6 8 7 10 10 8 8 9 9 7 -2 -12 -15 -13 -10 1 1
-11 -9 -3 -5 -4 -6 -5 -6 -6 -7 -8 -8 -7 -7 -8 -8 -9 -8 -2 4 6 6 7 7 7 8 7 7 8 7 7 10 9 9 9 9 5 -10 -14 -15 -13 -10 -5
-6 -8 -4 -3 -4 -4 -3 -3 -4 -5 -4 -4 -5 -4 -4 -5 -6 -6 -6 -7 -6 -2 6 6 6 7 7 8 7 7 8 8 10 10 9 9 9 6 2 -13 -16 -10 -8
-3 -5 -5 -3 -4 -3 -3 -3 -4 -3 -4 -5 -4 -4 -5 -5 -4 -6 -2 -2 -2 4 6 7 6 7 8 7 7 7 7 7 8 8 10 8 9 8 6 -5 -14 -13 -9
-3 -3 -5 -4 -3 -4 -4 -4 -4 -3 -3 -3 -4 -3 -3 -5 -5 -3 -4 -5 -4 -4 -4 2 6 8 8 8 7 6 7 6 5 6 7 10 9 8 8 5 -3 -12 -6
-3 -3 -3 -3 -3 -3 -3 -3 -3 -3 -4 -3 -2 -3 -3 -3 -3 -3 -2 -4 -5 -5 -6 -7 -5 -2 -1 7 7 7 7 7 3 -1 1 4 7 9 9 8 3 -7 -11
-5 -4 -3 -2 -2 -2 -3 -3 -3 -4 -2 -3 -6 -9 -7 -4 -1 -1 -3 -2 -3 -3 -4 -4 -4 -6 -6 -2 2 7 7 7 8 8 3 2 5 6 7 9 6 -0 -6
-5 -2 -1 -1 -2 -3 -2 -1 -2 -4 -4 -7 -10 -6 -4 -4 -4 -4 -3 -4 -4 -5 -5 -5 -5 -5 -6 -6 -4 -3 3 7 6 7 7 6 4 6 9 8 8 5 -2
-4 -2 -3 -3 -3 -3 -4 -3 -4 -5 -11 -14 -14 -15 -14 -12 -10 -8 -5 -5 -5 -5 -6 -8 -7 -5 -5 -7 -7 -6 -6 -4 6 6 7 7 7 7 7 6 7 7 5
-4 -4 -5 -4 -5 -5 -5 -5 -4 -8 -8 -14 -19 -20 -18 -17 -13 -11 -9 -7 -7 -8 -7 -6 -6 -7 -8 -6 -6 -10 -9 -9 -9 0 4 6 7 7 8 8 7 7 7
-4 -4 -4 -4 -5 -7 -4 -2 -3 -11 -17 -16 -13 -14 -13 -14 -13 -10 -7 -6 -5 -6 -7 -7 -7 -4 -4 -6 -6 -4 -3 -3 -5 -7 -4 4 6 6 7 8 7 6 6
-5 -5 -4 -6 -6 -3 -3 -8 -10 -15 -13 -12 -12 -11 -10 -9 -9 -10 -9 -7 -6 -5 -5 -5 -5 -6 -10 -7 -5 -6 -7 -6 -2 -2 -5 -6 -4 5 6 7 7 7 6
-5 -3 -2 -2 -2 -6 -8 -11 -15 -13 -11 -11 -11 -10 -9 -9 -9 -7 -7 -6 -5 -4 -4 -5 -5 -4 -3 -4 -5 -5 -6 -8 -8 -6 -4 -4 -6 -6 3 6 7 7 8
-0 -3 -2 -5 -6 -8 -9 -11 -10 -9 -9 -9 -9 -9 -9 -9 -8 -8 -7 -7 -7 -7 -6 -6 -6 -6 -6 -6 -6 -7 -5 -6 -9 -10 -7 -5 -4 -5 -0 2 3 6 7
-5 -3 -5 -6 -8 -9 -8 -9 -9 -9 -10 -10 -10 -10 -9 -9 -9 -9 -8 -8 -7 -7 -6 -6 -6 -6 -6 -5 -5 -6 -6 -5 -6 -9 -9 -6 -4 -4 -6 -6 -2 4 6
-4 -7 -7 -8 -8 -8 -8 -10 -12 -12 -11 -10 -10 -10 -10 -9 -9 -9 -9 -8 -7 -7 -6 -6 -5 -4 -4 -5 -4 -5 -6 -6 -6 -8 -10 -8 -8 -7 -6 -7 -8 -4 2
-6 -7 -8 -8 -8 -9 -12 -11 -11 -10 -10 -10 -9 -9 -9 -9 -8 -8 -8 -7 -7 -6 -6 -6 -6 -6 -5 -5 -5 -4 -5 -5 -6 -7 -8 -10 -12 -12 -10 -10 -10 -10 -9
-7 -7 -8 -8 -10 -12 -11 -11 -10 -10 -10 -10 -10 -10 -10 -10 -10 -10 -10 -10 -9 -8 -7 -7 -7 -6 -7 -6 -5 -4 -3 -5 -5 -6 -7 -8 -10 -9 -7 -11 -11 -9 -14
-8 -8 -9 -12 -11 -11 -11 -10 -10 -10 -9 -9 -9 -9 -10 -11 -11 -11 -11 -10 -10 -9 -9 -8 -8 -7 -7 -7 -6 -5 -3 -3 -4 -5 -6 -7 -8 -8 -7 -6 -7 -8 -14
-8 -11 -12 -12 -12 -11 -10 -10 -10 -11 -11 -11 -10 -10 -9 -9 -9 -9 -10 -10 -10 -10 -9 -9 -8 -8 -8 -8 -8 -8 -7 -5 -3 -4 -4 -5 -7 -6 -7 -7 -8 -10 -9
-11 -12 -13 -12 -11 -11 -11 -11 -11 -10 -10 -10 -10 -10 -10 -10 -10 -10 -8 -8 -9 -9 -9 -9 -9 -9 -8 -8 -8 -8 -9 -8 -5 -3 -3 -3 -5 -6 -5 -4 -5 -8 -5
-12 -12 -12 -12 -11 -11 -10 -12 -11 -10 -10 -10 -10 -10 -10 -8 -10 -10 -9 -8 -9 -9 -9 -10 -10 -9 -9 -8 -7 -7 -7 -7 -7 -6 -4 -3 -3 -3 -3 -3 -6 -4 -2
-11 -12 -12 -10 -9 -11 -12 -12 -11 -9 -10 -10 -10 -10 -10 -10 -10 -10 -9 -8 -9 -9 -9 -9 -9 -9 -9 -9 -8 -7 -7 -7 -7 -6 -7 -5 -4 -3 -2 -3 -6 -5 -3